Regional Weather Roundup
Issued by NWS Midland/Odessa, TX

Skip options and go directly to product.
Home | Oldest Version | Previous Version | Current Version | All | Text Only | Save Text | Print | Product List | Glossary Off

Skip product version selection by date and time.   

556
ASUS44 KMAF 222210
RWRMAF
MIDLAND AREA WEATHER ROUNDUP
NATIONAL WEATHER SERVICE MIDLAND TX
500 PM CDT WED OCT 22 2014

...IN SOUTHWEST TEXAS AND SOUTHEAST NEW MEXICO...

CITY           SKY/WX    TMP DP  RH WIND       PRES   REMARKS
ALPINE         MOSUNNY   70  57  62 S9        30.16F
ANDREWS        TSTM      68  61  80 S7        30.08S
ARTESIA        NOT AVBL
BIG SPRING     CLOUDY    72  63  73 SE9       30.10F
CARLSBAD       PTSUNNY   73  59  61 E6        30.05F
DRYDEN           N/A     69  61  75 E12       30.07S
FORT STOCKTON  PTSUNNY   71  60  68 S14G24    30.05F
GUAD PASS      SUNNY     72  50  45 SW13      30.16F
HOBBS          MOSUNNY   72  55  56 SW6       30.09S
MARFA          PTSUNNY   70  54  56 S12       30.15S
MIDLAND AIRPK  PTSUNNY   72  62  71 S6        30.07F
MIDLAND INTL   CLOUDY    74  58  57 S13       30.06F
ODESSA         PTSUNNY   73  58  59 S13       30.07F
PECOS          PTSUNNY   76  60  57 E7        30.02S
PRESIDIO       FAIR      78  57  48 S7        30.02F
SEMINOLE       PTSUNNY   69  60  73 S9        30.09S
SNYDER         CLOUDY    62  61  96 E7        30.11S
WINK           PTSUNNY   74  64  71 E12       30.03R
$$
...OTHER STATIONS IN TEXAS...

CITY           SKY/WX    TMP DP  RH WIND       PRES   REMARKS
ABILENE        CLOUDY    70  58  65 N3        30.10F
AMARILLO       LGT RAIN  65  61  87 SE17      30.06F
AUSTIN         MOSUNNY   81  58  45 E5        30.03F
BROWNSVILLE    MOSUNNY   83  67  58 NE13      29.96S
CORPUS CHRISTI MOSUNNY   81  66  60 E16       30.00S
DALLAS FTW     PTSUNNY   80  57  45 S7        30.07S
DEL RIO        CLOUDY    68  64  87 NW5       30.06S
EL PASO        MOSUNNY   75  52  44 CALM      30.07F
HOUSTON INT    MOSUNNY   79  58  48 VRB7      30.03F
LUBBOCK        CLOUDY    66  59  78 SE13      30.08F
SAN ANGELO     CLOUDY    73  54  51 SE7       30.08S
SAN ANTONIO    PTSUNNY   84  53  34 SE6       30.03S
WACO           MOSUNNY   80  57  45 SE3       30.06S
WICHITA FALLS  NOT AVBL
$$
...OTHER LOCATIONS IN NEW MEXICO...

CITY           SKY/WX    TMP DP  RH WIND       PRES   REMARKS
ALAMAGORDO     NOT AVBL
ALBUQUERQUE    PTSUNNY   71  40  32 VRB3      30.14S
CANNON AFB     MOSUNNY   73  52  46 SW10      30.07F
CLOVIS         MOSUNNY   73  52  46 SW7       30.09F
HOLLOMAN AFB   SUNNY     73  52  48 SE3       30.08F
ROSWELL        SUNNY     73  57  57 SE8       30.06F
RUIDOSO        SUNNY     66  41  39 N10       30.22F
SANTA FE       CLOUDY    69  38  32 NE6       30.16F
TRUTH OR CONSE SUNNY     73  45  36 S7        30.10F
TUCUMCARI      PTSUNNY   75  50  41 S7        30.01F
$$

USA.gov is the U.S. government's official web portal to all federal, state and local government web resources and services.